Meteo Giornale » Osservazioni meteo Italia » Bergamo-Orio Al Serio

ore: 15:50 - Osservazioni Meteo Bergamo-Orio Al Serio
Lat. 45° 40' N Lon. 9° 42' E Alt. 238 metri s.l.m.

sereno Europe/Rome

29 °C

Sereno

Temp. 24 Ore

17 °C

29 °C

Sud

11.1 Km/h

Dew point 13 °C

Umidità 37 %

Visibilità  10 Km

Il sole sorge alle ore 05:35

Il sole tramonta alle ore 21:01

Data e Ora Cielo e Fenomeni T °C DP °C Um. % Pres. hPa Vis. km Vento km/h
Oggi h: 15:50 sereno Sereno 29 13 37 1020 10 S 11.1
Oggi h: 15:20 sereno Sereno 29 12 35 1020 10 O/SO 7.4
Oggi h: 14:50 sereno Sereno 29 12 35 1020 10 N 5.5
Oggi h: 14:20 sereno Sereno 29 12 35 1020 10 N 9.3
Oggi h: 13:50 sereno Sereno 28 11 34 1021 10 O 7.4
Oggi h: 13:20 sereno Sereno 28 11 34 1021 10 N 9.3
Oggi h: 12:50 sereno Sereno 27 11 36 1021 10 N 9.3
Oggi h: 12:20 sereno Sereno 27 10 34 1021 10 S/SO 11.1
Oggi h: 11:50 sereno Sereno 27 10 34 1021 10 S 7.4
Oggi h: 11:20 sereno Sereno 26 10 36 1021 10 S 9.3
Oggi h: 10:50 sereno Sereno 26 10 36 1021 10 N 5.5
Oggi h: 10:20 sereno Sereno 26 11 39 1022 10 N 3.7
Oggi h: 09:50 sereno Sereno 26 10 36 1022 10 N 1.8
Oggi h: 09:20 sereno Sereno 24 13 50 1022 10 N 5.5
Oggi h: 08:50 sereno Sereno 23 14 56 1022 10 N 9.3
Oggi h: 08:20 sereno Sereno 22 14 60 1022 10 N 9.3
Oggi h: 07:50 sereno Sereno 21 13 60 1022 10 N/NE 11.1
Oggi h: 07:20 sereno Sereno 20 13 64 1022 10 N/NE 13
Oggi h: 06:50 sereno Sereno 18 13 72 1022 10 N/NE 11.1
Oggi h: 06:20 sereno Sereno 17 12 72 1022 10 N 11.1
Oggi h: 05:50 sereno Sereno 17 12 72 1022 10 N 9.3
Oggi h: 05:20 sereno Sereno 17 12 72 1022 10 N/NE 11.1
Oggi h: 04:50 sereno Sereno 17 12 72 1022 10 N 9.3
Oggi h: 04:20 sereno Sereno 17 12 72 1022 10 N 9.3
Oggi h: 03:50 sereno Sereno 18 12 67 1022 10 N 9.3
Oggi h: 03:20 sereno Sereno 18 12 67 1022 10 N 9.3
Oggi h: 02:50 sereno Sereno 18 12 67 1022 10 N 9.3
Oggi h: 02:20 sereno Sereno 18 12 67 1022 10 N 9.3
Oggi h: 01:50 sereno Sereno 19 12 63 1022 10 N/NE 9.3
Oggi h: 01:20 sereno Sereno 19 12 63 1022 10 N 11.1
Oggi h: 00:50 sereno Sereno 19 12 63 1022 10 N 9.3
Ieri h: 23:50 sereno Sereno 20 12 59 1021 10 N/NE 9.3
Ieri h: 23:20 sereno Sereno 20 13 64 1021 10 N/NE 11.1
Ieri h: 22:50 sereno Sereno 20 13 64 1021 10 N/NE 7.4
Ieri h: 22:20 sereno Sereno 21 13 60 1020 10 N/NE 7.4
Ieri h: 21:50 sereno Sereno 22 13 56 1020 10 N/NE 7.4
Ieri h: 21:20 sereno Sereno 22 12 53 1019 10 N 5.5
Ieri h: 20:50 sereno Sereno 24 12 47 1019 10 N 5.5
Ieri h: 20:20 sereno Sereno 26 11 39 1019 10 S/SE 9.3
Ieri h: 19:50 sereno Sereno 26 11 39 1019 10 N 5.5
Ieri h: 19:20 sereno Sereno 26 10 36 1019 10 S/SE 7.4
Ieri h: 18:50 sereno Sereno 27 10 34 1019 10 S 9.3
Ieri h: 18:20 sereno Sereno 27 11 36 1019 10 N 5.5
Ieri h: 17:50 sereno Sereno 27 11 36 1019 10 S/SE 9.3
Ieri h: 17:20 sereno Sereno 27 10 34 1019 10 SO 11.1
Ieri h: 16:50 sereno Sereno 27 11 36 1019 10 S 9.3